Kalamazoo, MI

1:39 AM EDT on May 30, 2017 (GMT -0400)
Kalamazoo-Battle Creek International

Weather History for KAZO - May, 2013

Change the Weather History Date:

Wednesday, May 22, 2013

  Actual Average Record
Temperature  
Mean Temperature 66 °F 61 °F  
Max Temperature 73 °F 72 °F 92 °F (1977)
Min Temperature 59 °F 50 °F 35 °F (2002)
Degree Days  
Heating Degree Days 0 6  
Month to date heating degree days 81 182  
Since 1 July heating degree days 6213 6325  
Cooling Degree Days 1 2  
Month to date cooling degree days 51 18  
Year to date cooling degree days 53 22  
Growing Degree Days 17 (Base 50)    
Moisture  
Dew Point 63 °F    
Average Humidity 83    
Maximum Humidity 93    
Minimum Humidity 73    
Precipitation  
Precipitation 0.85 in 0.13 in 1.10 in (1982)
Month to date precipitation 2.43 2.80  
Year to date precipitation 14.02 11.37  
Sea Level Pressure  
Sea Level Pressure 29.69 in    
Wind  
Wind Speed 8 mph (SSW)    
Max Wind Speed 25 mph    
Max Gust Speed 39 mph    
Visibility 8 miles    
Events Rain , Thunderstorm    
T = Trace of Precipitation, MM = Missing Value Source: NWS Daily Summary

Daily Weather History Graph

Daily Weather History Graph

Search for Another Location

Airport or City:

Trip Planner

Search our weather history database for the weather conditions in past years. The results will help you decide how hot, cold, wet, or windy it might be!

Date:

Astronomy

May. 22, 2013 Rise Set
Actual Time 6:14 AM EDT 9:03 PM EDT
Civil Twilight 5:41 AM EDT 9:36 PM EDT
Nautical Twilight 5:00 AM EDT 10:18 PM EDT
Astronomical Twilight 4:12 AM EDT 11:06 PM EDT
Moon 6:22 PM EDT (5/22) 4:21 AM EDT (5/22)
Length of Visible Light 15h 54m
Length of Day
14h 49m
Waxing Gibbous, 91% of the Moon is Illuminated
May 22
Waxing Gibbous
May 25
Full
May 31
Last Quarter
Jun 8
New
Jun 16
First Quarter

Hourly Weather History & Observations

Time (EDT) Temp. Dew Point Humidity Pressure Visibility Wind Dir Wind Speed Gust Speed Precip Events Conditions
12:53 AM 71.1 °F 64.0 °F 78% 29.72 in 10.0 mi South 5.8 mph - N/A   Partly Cloudy
1:53 AM 70.0 °F 64.0 °F 81% 29.72 in 10.0 mi South 5.8 mph - N/A   Clear
2:53 AM 71.1 °F 64.0 °F 78% 29.71 in 10.0 mi SSW 5.8 mph - N/A   Mostly Cloudy
3:53 AM 69.1 °F 64.0 °F 84% 29.70 in 10.0 mi South 6.9 mph - 0.00 in   Mostly Cloudy
4:53 AM 69.1 °F 64.0 °F 84% 29.69 in 10.0 mi South 10.4 mph - 0.00 in   Overcast
5:53 AM 68.0 °F 64.9 °F 90% 29.70 in 9.0 mi South 8.1 mph - 0.01 in Rain Light Rain
6:53 AM 66.9 °F 64.9 °F 93% 29.71 in 7.0 mi South 5.8 mph - 0.01 in   Mostly Cloudy
7:53 AM 68.0 °F 64.9 °F 90% 29.70 in 8.0 mi South 5.8 mph - N/A   Mostly Cloudy
8:53 AM 68.0 °F 64.9 °F 90% 29.69 in 10.0 mi South 8.1 mph - N/A   Overcast
9:21 AM 68.0 °F 64.4 °F 88% 29.70 in 10.0 mi South 12.7 mph - N/A   Overcast
9:53 AM 68.0 °F 64.0 °F 87% 29.68 in 10.0 mi South 10.4 mph - N/A   Overcast
10:50 AM 68.0 °F 64.4 °F 88% 29.68 in 9.0 mi South 10.4 mph - 0.00 in Rain Light Rain
10:53 AM 68.0 °F 64.0 °F 87% 29.68 in 8.0 mi South 11.5 mph - 0.00 in Rain Light Rain
11:19 AM 66.2 °F 64.4 °F 94% 29.68 in 3.0 mi South 9.2 mph - 0.02 in Rain Light Rain
11:38 AM 66.2 °F 64.4 °F 94% 29.68 in 3.0 mi South 9.2 mph - 0.02 in Rain Light Rain
11:53 AM 66.9 °F 64.0 °F 90% 29.68 in 4.0 mi South 15.0 mph - 0.03 in Rain Rain
12:15 PM 66.2 °F 64.4 °F 94% 29.69 in 10.0 mi SSW 13.8 mph 20.7 mph 0.00 in   Overcast
12:53 PM 69.1 °F 64.9 °F 87% 29.68 in 8.0 mi SSW 11.5 mph 20.7 mph 0.00 in   Overcast
1:39 PM 71.6 °F 64.4 °F 78% 29.67 in 10.0 mi South 19.6 mph 25.3 mph 0.01 in   Overcast
1:53 PM 73.0 °F 64.0 °F 73% 29.65 in 10.0 mi SSW 15.0 mph - 0.01 in   Mostly Cloudy
2:53 PM 66.9 °F 63.0 °F 87% 29.67 in 3.0 mi West 15.0 mph 21.9 mph 0.12 in Rain Light Rain
3:32 PM 66.2 °F 64.4 °F 94% 29.69 in 1.8 mi West 13.8 mph - 0.13 in Rain , Thunderstorm Heavy Thunderstorms and Rain
3:53 PM 66.0 °F 63.0 °F 90% 29.67 in 9.0 mi SSW 5.8 mph - 0.40 in Rain , Thunderstorm Light Thunderstorms and Rain
3:57 PM 66.2 °F 62.6 °F 88% 29.68 in 2.0 mi SSW 5.8 mph - 0.09 in Rain Light Rain
4:02 PM 66.2 °F 64.4 °F 94% 29.68 in 1.0 mi South 5.8 mph - 0.14 in Rain Heavy Rain
4:09 PM 66.2 °F 64.4 °F 94% 29.68 in 4.0 mi Variable 3.5 mph - 0.14 in Rain Light Rain
4:53 PM 64.0 °F 62.1 °F 93% 29.68 in 2.5 mi WNW 10.4 mph - 0.26 in Rain Heavy Rain
5:00 PM 64.4 °F 62.6 °F 94% 29.69 in 2.0 mi WNW 11.5 mph - 0.00 in Rain Light Rain
5:19 PM 64.4 °F 60.8 °F 88% 29.69 in 10.0 mi WNW 9.2 mph - 0.00 in   Overcast
5:53 PM 64.9 °F 61.0 °F 87% 29.68 in 10.0 mi WSW 6.9 mph - 0.00 in Rain Light Rain
6:53 PM 66.0 °F 62.1 °F 87% 29.68 in 10.0 mi West 8.1 mph - 0.00 in   Mostly Cloudy
7:53 PM 64.9 °F 60.1 °F 84% 29.69 in 10.0 mi West 8.1 mph - N/A   Mostly Cloudy
7:58 PM 64.4 °F 60.8 °F 88% 29.70 in 10.0 mi West 6.9 mph - N/A   Overcast
8:28 PM 64.4 °F 60.8 °F 88% 29.71 in 10.0 mi West 9.2 mph - N/A   Scattered Clouds
8:53 PM 63.0 °F 59.0 °F 87% 29.71 in 10.0 mi West 3.5 mph - N/A   Partly Cloudy
9:53 PM 62.1 °F 57.9 °F 86% 29.72 in 10.0 mi WSW 3.5 mph - N/A   Partly Cloudy
10:53 PM 61.0 °F 57.9 °F 90% 29.73 in 10.0 mi SW 4.6 mph - N/A   Overcast
11:53 PM 61.0 °F 57.9 °F 90% 29.73 in 10.0 mi SSW 5.8 mph - N/A   Overcast